Flag for Canada Weather past 2 weeks in Norfolk, Ontario, Canada

Now
54 °F

Cool.


Feels Like: 54 °F
Forecast: 58 / 79 °F
Wind: No wind

Location: Delhi CS

Current Time: Jul 5, 2015 at 5:46:02 AM

Latest Report: Jul 5, 2015 at 5:00 AM


Visibility: N/A

Pressure: 30.06 "Hg

Humidity: 99%

Dew point: 53 °F

Location of NorfolkLocation

Historic Weather in Norfolk — Graph

°F

Norfolk temperature yesterday

Maximum temperature yesterday: 78 °F (at 6:00 PM)
Minimum temperature yesterday: 46 °F (at 6:00 AM)
Average temperature yesterday: 64 °F

Past Weeks' High & Low Weather Summary

 TemperatureHumidityPressure
High81 °F (Jun 22, 1:00 PM)100% (Jun 21, 4:00 AM)30.13 "Hg (Jun 21, 4:00 AM)
Low44 °F (Jul 3, 6:00 AM)29% (Jun 25, 3:00 PM)29.64 "Hg (Jun 28, 5:00 AM)
Average64 °F76%29.90 "Hg
* Reported Jun 20 4:00 AM — Jul 5 4:00 AM, Norfolk, Weather by CustomWeather, © 2015

Note: Actual official high and low records may vary slightly from our data, if they occured in-between our weather recording intervals... More about our weather records

Advertising

Norfolk weather history for previous 24 hours

 ConditionsComfort  
Time TempWeatherWind HumidityBarometerVisibility
4:00 AM
Sun, Jul 5
54 °FCool.No wind98%30.06 "HgN/A
3:00 AM56 °FCool.2 mph97%30.06 "HgN/A
2:00 AM55 °FCool.No wind96%30.05 "HgN/A
1:00 AM58 °FCool.1 mph95%30.05 "HgN/A
12:00 AM56 °FCool.1 mph99%30.03 "HgN/A
11:00 PM
Sat, Jul 4
60 °FCool.1 mph89%30.01 "HgN/A
10:00 PM63 °FMild.3 mph80%29.99 "HgN/A
9:00 PM66 °FMild.3 mph70%29.98 "HgN/A
8:00 PM70 °FMild.5 mph62%29.96 "HgN/A
7:00 PM74 °FMild.7 mph55%29.96 "HgN/A
6:00 PM78 °FWarm.5 mph42%29.96 "HgN/A
5:00 PM77 °FPleasantly warm.7 mph39%29.96 "HgN/A
4:00 PM77 °FMild.6 mph34%29.96 "HgN/A
3:00 PM76 °FMild.6 mph38%29.95 "HgN/A
2:00 PM76 °FMild.7 mph37%29.95 "HgN/A
1:00 PM73 °FMild.5 mph39%29.95 "HgN/A
12:00 PM71 °FMild.5 mph41%29.95 "HgN/A
11:00 AM69 °FMild.2 mph44%29.94 "HgN/A
10:00 AM68 °FMild.5 mph48%29.94 "HgN/A
9:00 AM64 °FMild.2 mph61%29.94 "HgN/A
8:00 AM58 °FCool.2 mph82%29.93 "HgN/A
7:00 AM52 °FCool.3 mph92%29.92 "HgN/A
6:00 AM46 °FCool.1 mph97%29.90 "HgN/A
5:00 AM48 °FCool.1 mph95%29.90 "HgN/A
Weather by CustomWeather, © 2015

See weather overviewHow to use our weather pages